Location: Newark
(30.0333°N, 31.2167°E)
Time: 06:17:38
(UTC+00:00)

Tiros 1 despin weight - Pass Details

Date: 24 January 2020
Orbit: 594 x 642 km, 48.2° (Epoch: 17 February)

Event Time Altitude Azimuth Distance (km) Brightness Sun altitude
Rises 17:56:37 0° 284° (WNW) 2,935 ? -32.7°
Reaches altitude 10° 18:01:00 10° 245° (WSW) 2,024 ? -33.7°
Maximum altitude 18:01:56 11° 234° (SW) 1,987 ? -33.9°
Drops below altitude 10° 18:02:52 10° 222° (SW) 2,021 ? -34.1°
Enters shadow 18:04:36 - 203° (SSW) 2,258 ? -34.4°
Sets 18:07:16 0° 183° (S) 2,921 - -35.0°
